DW5805 Weather Reports


time (UTC)temp
F
wind
direction
speed
knots
gust
knots
rain 1hr
in
rain 24hr
in
rain mn
in
humidity
%
barometer
mb
20260506004618 74 286 2.6 7.8 0.00 0.16 0.00 28 1010.5
20260506004117 74 285 3.5 6.1 0.00 0.16 0.00 29 1010.6
20260506003616 74 285 3.5 7.0 0.00 0.18 0.00 29 1010.5
20260506003114 74 286 2.6 7.0 0.00 0.24 0.00 29 1010.3
20260506002615 74 286 2.6 6.1 0.00 0.27 0.00 28 1010.5
20260506002113 74 286 3.5 7.0 0.00 0.27 0.00 29 1010.3
20260506001613 75 287 2.6 7.0 0.00 0.28 0.00 28 1010.5
20260506001114 75 288 1.7 7.0 0.00 0.28 0.00 28 1010.5
20260506000829 75 288 1.7 7.0 0.00 0.28 0.00 29 1010.5
20260506000327 75 288 1.7 7.0 0.00 0.28 0.00 27 1010.5
20260505235606 75 288 1.7 7.8 0.00 0.28 0.00 28 1010.6
20260505235106 75 288 1.7 7.8 0.00 0.28 0.00 30 1010.5
20260505234607 75 288 1.7 4.3 0.00 0.28 0.00 27 1010.6
20260505234107 75 288 2.6 7.8 0.00 0.28 0.00 27 1010.6
20260505233836 75 288 4.3 7.8 0.00 0.28 0.00 30 1010.6
20260505233106 75 283 4.3 8.7 0.00 0.28 0.00 29 1010.6
20260505232606 75 284 3.5 8.7 0.00 0.28 0.00 29 1010.7
20260505232108 75 293 2.6 7.0 0.00 0.28 0.00 28 1010.7
20260505231607 75 293 1.7 7.0 0.00 0.28 0.00 28 1010.7
20260505231330 74 293 1.7 4.3 0.00 0.28 0.00 27 1010.7
20260505230608 74 293 2.6 8.7 0.00 0.28 0.00 27 1010.8
20260505230107 74 293 3.5 8.7 0.00 0.28 0.00 30 1010.8
20260505225607 74 300 2.6 8.7 0.00 0.28 0.00 28 1010.9
20260505225106 74 302 1.7 4.3 0.00 0.28 0.00 29 1010.9
20260505224606 74 300 1.7 7.0 0.00 0.28 0.00 30 1010.9
20260505224330 74 300 1.7 7.0 0.00 0.28 0.00 29 1010.9
20260505224051 74 300 1.7 8.7 0.00 0.28 0.00 30 1011.0
20260505223108 74 299 2.6 8.7 0.00 0.28 0.00 28 1011.1
20260505222607 73 292 2.6 8.7 0.00 0.28 0.00 30 1011.1
20260505222107 73 291 1.7 8.7 0.00 0.28 0.00 31 1011.4
20260505221606 73 290 0.9 3.5 0.00 0.28 0.00 32 1011.4
20260505221335 73 290 0.9 4.3 0.00 0.28 0.00 32 1011.5
20260505220822 72 290 1.7 6.1 0.00 0.28 0.00 32 1011.5
20260505220552 73 290 1.7 6.1 0.00 0.28 0.00 33 1011.6
20260505215606 72 290 1.7 4.3 0.00 0.28 0.00 32 1011.6
20260505215334 73 292 1.7 3.5 0.00 0.28 0.00 32 1011.6
20260505214826 72 292 1.7 6.1 0.00 0.28 0.00 34 1011.8
20260505214105 71 293 1.7 7.0 0.00 0.28 0.00 34 1011.8
20260505213603 72 292 1.7 7.0 0.00 0.28 0.00 38 1011.8
20260505213323 72 292 0.9 4.3 0.00 0.28 0.00 35 1011.9
20260505212603 71 292 1.7 6.1 0.00 0.28 0.00 36 1011.9
20260505212104 70 292 1.7 6.1 0.00 0.28 0.00 37 1012.1
20260505211601 70 292 2.6 7.0 0.00 0.28 0.00 37 1012.1
20260505211101 70 294 1.7 7.0 0.00 0.28 0.00 39 1012.1
20260505210558 70 296 0.9 6.1 0.00 0.28 0.00 40 1012.1
20260505210058 70 288 1.7 7.0 0.00 0.28 0.00 40 1012.2
20260505205555 70 288 1.7 7.0 0.00 0.28 0.00 42 1012.2
20260505205052 69 285 1.7 6.1 0.00 0.28 0.00 41 1012.2
20260505204552 70 270 1.7 7.0 0.00 0.28 0.00 38 1012.3
20260505204537 69 263 0.9 7.0 0.00 0.28 0.00 43 1012.3
20260505203642 69 268 0.0 0.0 0.00 0.28 0.00 42 1012.4
20260505202551 67 268 0.0 0.0 0.00 0.28 0.00 46 1012.4
20260505202050 67 269 0.0 0.9 0.00 0.28 0.00 47 1012.5
20260505201545 68 269 0.9 3.5 0.00 0.28 0.00 45 1012.5
20260505201040 67 269 1.7 6.1 0.00 0.28 0.00 47 1012.5
20260505200533 68 269 2.6 6.1 0.00 0.28 0.00 48 1012.6
20260505200026 68 276 1.7 6.1 0.00 0.28 0.00 47 1012.6
20260505195521 67 281 0.9 6.1 0.00 0.28 0.00 49 1012.7
20260505195014 67 144 0.9 4.3 0.00 0.28 0.00 45 1012.9
20260505194508 66 144 1.7 4.3 0.00 0.28 0.00 49 1012.7
20260505194002 66 144 1.7 4.3 0.00 0.28 0.00 51 1012.9
20260505193721 67 144 2.6 5.2 0.00 0.28 0.00 50 1012.9
20260505192950 67 157 3.5 7.8 0.00 0.28 0.00 51 1012.9
20260505192445 66 229 2.6 7.8 0.00 0.28 0.00 51 1012.9
20260505191939 65 148 1.7 4.3 0.00 0.28 0.00 53 1012.9
20260505191432 64 150 0.9 4.3 0.00 0.28 0.00 53 1013.0
20260505190926 63 152 0.9 4.3 0.00 0.28 0.00 55 1012.9
20260505190644 63 196 0.9 3.5 0.00 0.28 0.00 54 1013.0
20260505185916 63 201 0.9 5.2 0.00 0.28 0.00 55 1012.9
20260505185633 63 201 0.9 5.2 0.00 0.28 0.00 55 1012.9
20260505184904 64 210 1.7 3.5 0.00 0.28 0.00 54 1013.0
20260505184357 64 211 2.6 6.1 0.00 0.28 0.00 56 1013.0
20260505183857 64 221 2.6 6.1 0.00 0.28 0.00 56 1012.9
20260505183357 64 161 1.7 5.2 0.00 0.28 0.00 56 1013.0
20260505182857 63 161 0.9 5.2 0.00 0.28 0.00 57 1013.1
20260505182621 62 159 0.9 4.3 0.00 0.28 0.00 60 1013.1
20260505181855 60 159 0.9 4.3 0.00 0.28 0.00 60 1013.1
20260505181354 60 161 0.9 3.5 0.00 0.28 0.00 60 1013.1
20260505180854 60 161 0.9 5.2 0.00 0.28 0.00 63 1013.1
20260505180354 59 159 1.7 5.2 0.00 0.28 0.00 63 1013.0
20260505175855 59 246 1.7 5.2 0.00 0.28 0.00 63 1013.0
20260505175353 59 273 1.7 5.2 0.00 0.28 0.00 62 1012.9
20260505174852 60 273 1.7 5.2 0.00 0.28 0.00 63 1013.0
20260505174611 60 269 0.9 5.2 0.00 0.28 0.00 63 1012.9
20260505174116 60 269 0.9 3.5 0.00 0.28 0.00 63 1012.9
20260505173351 60 268 0.9 3.5 0.00 0.28 0.00 63 1012.7
20260505172849 59 269 0.9 2.6 0.00 0.28 0.00 64 1012.6
20260505172348 58 268 0.9 2.6 0.00 0.28 0.00 66 1012.6
20260505171844 58 268 0.0 2.6 0.00 0.28 0.00 66 1012.6
20260505171344 57 268 0.9 3.5 0.00 0.28 0.00 67 1012.6
20260505171058 56 268 0.9 3.5 0.00 0.28 0.00 68 1012.6
20260505170332 56 269 0.9 3.5 0.00 0.28 0.00 70 1012.6
20260505165826 56 270 0.0 1.7 0.00 0.28 0.00 70 1012.6
20260505165320 55 270 0.9 1.7 0.00 0.28 0.00 70 1012.5
20260505164815 55 270 0.0 1.7 0.00 0.28 0.00 70 1012.6
20260505164309 55 270 0.0 0.0 0.00 0.28 0.00 72 1012.6
20260505163804 54 270 0.0 0.9 0.00 0.28 0.00 72 1012.6
20260505163256 54 270 0.0 1.7 0.00 0.28 0.00 73 1012.6
20260505162750 54 270 0.9 2.6 0.00 0.28 0.00 74 1012.5
20260505162245 53 270 0.9 2.6 0.00 0.28 0.00 74 1012.5
20260505161738 53 270 0.0 1.7 0.00 0.28 0.00 74 1012.5
20260505161453 53 270 0.0 1.7 0.00 0.28 0.00 75 1012.4
20260505160728 53 270 0.0 1.7 0.00 0.28 0.00 76 1012.4
20260505160221 53 270 0.0 1.7 0.00 0.28 0.00 76 1012.4
20260505153204 51 270 0.9 3.5 0.00 0.28 0.00 78 1012.2
20260505152706 51 270 0.0 2.6 0.00 0.28 0.00 78 1012.1
20260505152205 51 270 0.9 3.5 0.00 0.28 0.00 78 1011.9
20260505151705 51 270 1.7 3.5 0.00 0.28 0.00 79 1011.9
20260505151205 51 284 1.7 2.6 0.00 0.28 0.00 79 1011.8
20260505150703 50 284 1.7 5.2 0.00 0.28 0.00 80 1011.9
20260505150201 50 284 1.7 5.2 0.00 0.28 0.00 80 1011.9
20260505140638 49 284 0.0 0.0 0.00 0.28 0.00 83 1011.5
20260505140131 49 284 0.0 0.0 0.00 0.28 0.00 83 1011.4
20260505124610 48 284 0.0 0.0 0.00 0.28 0.00 83 1010.7
20260505124112 48 284 0.0 0.0 0.00 0.28 0.00 83 1010.7
20260505123611 48 284 0.0 0.0 0.00 0.28 0.00 83 1010.7
20260505123109 47 284 0.0 0.9 0.00 0.28 0.00 83 1010.7
20260505122608 47 284 0.0 1.7 0.00 0.28 0.00 83 1010.7
20260505122107 47 284 0.0 1.7 0.00 0.28 0.00 83 1010.7
20260505121600 48 284 0.0 0.0 0.00 0.28 0.00 83 1010.7
20260505121055 48 284 0.0 0.0 0.00 0.28 0.00 83 1010.7
20260505120549 48 284 0.0 0.0 0.00 0.28 0.00 83 1010.7
20260505120525 48 284 0.0 0.0 0.00 0.28 0.00 83 1010.7
20260505115537 47 284 0.0 0.0 0.00 0.28 0.00 83 1010.6
20260505115031 48 284 0.0 0.0 0.00 0.28 0.00 83 1010.6
20260505114525 48 284 0.0 0.0 0.00 0.28 0.00 83 1010.7
20260505114019 47 284 0.0 0.0 0.00 0.28 0.00 83 1010.7
20260505113512 47 284 0.0 0.9 0.00 0.28 0.00 83 1010.6
20260505113008 47 284 0.0 1.7 0.00 0.28 0.00 83 1010.6
20260505112502 47 284 0.0 1.7 0.00 0.28 0.00 83 1010.6
20260505111956 47 284 0.0 0.9 0.00 0.28 0.00 83 1010.6
20260505111455 47 284 0.0 2.6 0.00 0.28 0.00 83 1010.6
20260505110953 47 284 0.0 2.6 0.00 0.28 0.00 83 1010.7
20260505110709 47 284 0.0 0.0 0.00 0.28 0.00 83 1010.6
20260505101943 47 284 0.0 0.9 0.00 0.28 0.00 83 1010.9
20260505101444 47 284 0.0 0.9 0.00 0.28 0.00 83 1010.9
20260505101201 47 284 0.0 0.9 0.00 0.28 0.00 83 1010.9
20260505100439 47 284 0.0 1.7 0.00 0.28 0.00 83 1010.9
20260505095938 47 284 0.0 1.7 0.00 0.28 0.00 83 1010.8
20260505095439 47 284 0.0 0.9 0.00 0.28 0.00 83 1010.9
20260505094937 47 284 0.0 0.9 0.00 0.28 0.00 84 1010.9
20260505094655 47 284 0.0 0.9 0.00 0.28 0.00 84 1011.0
20260505094153 47 284 0.0 0.9 0.00 0.28 0.00 83 1010.9
20260505093429 47 284 0.0 0.9 0.00 0.28 0.00 83 1011.0
20260505092922 47 284 0.0 0.9 0.00 0.28 0.00 83 1011.0
20260505092416 47 284 0.0 1.7 0.00 0.28 0.00 83 1010.9
20260505092402 47 284 0.0 2.6 0.00 0.28 0.00 83 1011.0
20260505091405 47 284 0.9 2.6 0.00 0.28 0.00 83 1011.0
20260505090859 47 284 0.9 2.6 0.00 0.28 0.00 83 1010.9
20260505090352 47 284 0.9 2.6 0.00 0.28 0.00 83 1011.0
20260505085846 47 284 0.9 3.5 0.00 0.28 0.00 83 1011.0
20260505085426 47 284 0.9 3.5 0.00 0.28 0.00 84 1011.1
20260505084329 47 284 0.0 0.9 0.00 0.28 0.00 83 1011.3
20260505083823 47 284 0.0 2.6 0.00 0.28 0.00 83 1011.1
20260505083317 47 284 0.9 3.5 0.00 0.28 0.00 83 1011.3
20260505082813 47 285 0.0 3.5 0.00 0.28 0.00 83 1011.3
20260505082309 47 285 0.0 1.7 0.00 0.28 0.00 83 1011.4
20260505081808 47 285 0.0 1.7 0.00 0.28 0.00 83 1011.5
20260505081308 47 285 0.0 1.7 0.00 0.28 0.00 83 1011.4
20260505081028 47 285 0.0 0.9 0.00 0.28 0.00 83 1011.5
20260505080309 47 285 0.0 2.6 0.00 0.28 0.00 84 1011.4
20260505075809 47 285 0.0 2.6 0.00 0.28 0.00 84 1011.5
20260505075306 47 285 0.0 1.7 0.00 0.28 0.00 84 1011.5
20260505074805 47 285 0.0 1.7 0.00 0.28 0.00 84 1011.6
20260505074528 47 285 0.0 0.9 0.00 0.28 0.00 84 1011.6
20260505074032 47 285 0.0 2.6 0.00 0.28 0.00 84 1011.5
20260505073302 47 285 0.0 2.6 0.00 0.28 0.00 85 1011.7
20260505072803 47 285 0.9 1.7 0.00 0.28 0.00 85 1011.1
20260505072305 47 285 0.0 1.7 0.00 0.28 0.00 85 1011.6
20260505072300 47 285 0.0 1.7 0.00 0.28 0.00 85 1011.6
20260505071303 47 285 0.9 2.6 0.00 0.28 0.00 84 1011.6
20260505071020 47 285 0.0 2.6 0.00 0.28 0.00 85 1011.6
20260505070301 47 285 0.0 1.7 0.00 0.28 0.00 85 1011.5
20260505065801 47 285 0.0 0.9 0.00 0.28 0.28 85 1011.4
20260505065255 47 285 0.0 0.0 0.00 0.28 0.28 84 1011.4
20260505064750 47 285 0.0 0.0 0.00 0.28 0.28 84 1011.3
20260505064505 47 285 0.9 5.2 0.00 0.28 0.28 84 1011.3
20260505063737 47 285 1.7 5.2 0.00 0.28 0.28 84 1011.3
20260505063231 47 285 0.9 2.6 0.00 0.28 0.28 84 1011.1
20260505062725 47 285 0.9 2.6 0.00 0.28 0.28 84 1010.9
20260505062219 47 285 0.9 6.1 0.00 0.28 0.28 85 1010.7
20260505061713 47 285 0.9 6.1 0.00 0.28 0.28 85 1010.8
20260505061206 47 289 0.0 2.6 0.00 0.28 0.28 85 1010.8
20260505060701 47 289 0.9 7.0 0.00 0.28 0.28 85 1010.9
20260505060155 47 289 2.6 7.0 0.00 0.28 0.28 85 1011.1
20260505055648 48 289 1.7 7.0 0.00 0.28 0.28 85 1011.0
20260505055142 48 291 1.7 4.3 0.00 0.28 0.28 86 1010.9
20260505055116 48 291 0.9 4.3 0.00 0.28 0.28 86 1011.0
20260505054356 48 291 0.9 4.3 0.00 0.28 0.28 86 1011.0
20260505053624 48 292 0.9 3.5 0.00 0.28 0.28 86 1011.1
20260505053118 48 292 1.7 3.5 0.00 0.28 0.28 87 1011.1
20260505052619 48 292 0.9 3.5 0.00 0.28 0.28 87 1011.3
20260505052117 48 292 0.0 1.7 0.00 0.28 0.28 86 1011.3
20260505051615 48 292 0.0 1.7 0.00 0.28 0.28 87 1011.1
20260505051113 48 292 0.9 6.1 0.00 0.28 0.28 87 1011.3
20260505050611 48 292 2.6 7.0 0.00 0.28 0.28 87 1011.4
20260505050111 48 299 3.5 7.8 0.00 0.28 0.28 87 1011.5
20260505041607 47 195 0.0 1.7 0.00 0.28 0.28 87 1011.0
20260505041326 47 195 0.0 1.7 0.00 0.28 0.28 87 1010.9
20260505040607 47 195 0.0 2.6 0.00 0.28 0.28 87 1010.8
20260505040105 47 195 0.0 2.6 0.01 0.28 0.28 86 1010.8
20260505035603 47 195 0.0 2.6 0.03 0.28 0.28 86 1010.7
20260505035315 47 195 0.0 1.7 0.03 0.28 0.28 86 1010.9
20260505034551 47 195 0.0 0.9 0.04 0.28 0.28 86 1010.9
20260505034045 47 195 0.0 0.9 0.06 0.28 0.28 86 1010.8
20260505033540 47 195 0.0 2.6 0.07 0.28 0.28 86 1010.8
20260505033034 47 195 0.0 2.6 0.07 0.28 0.28 85 1010.7
20260505032609 47 196 0.9 4.3 0.07 0.28 0.28 85 1010.7
20260505031514 48 194 0.9 4.3 0.07 0.28 0.28 86 1010.3
20260505031230 48 194 1.7 4.3 0.07 0.28 0.28 86 1010.0
20260505030502 49 205 1.7 3.5 0.07 0.28 0.28 87 1010.1
20260505025956 49 231 0.9 3.5 0.05 0.26 0.26 87 1010.3
20260505025451 49 250 0.0 2.6 0.04 0.25 0.25 86 1010.5
20260505024944 49 252 0.9 2.6 0.04 0.25 0.25 86 1010.8
20260505024704 49 252 0.9 4.3 0.03 0.24 0.24 86 1010.2
20260505023932 49 252 0.0 4.3 0.01 0.22 0.22 85 1009.9
20260505023427 49 254 0.0 1.7 0.00 0.21 0.21 85 1011.0
20260505022921 50 224 0.0 2.6 0.00 0.21 0.21 86 1011.3
20260505022637 50 224 1.7 7.8 0.01 0.21 0.21 86 1010.8
20260505021908 49 223 2.6 7.8 0.02 0.21 0.21 85 1010.5
20260505021403 50 224 0.9 7.0 0.04 0.21 0.21 85 1010.2
20260505020856 50 250 0.9 3.5 0.06 0.21 0.21 87 1010.1
20260505020351 50 251 0.9 6.1 0.07 0.21 0.21 87 1010.1
20260505015845 50 251 1.7 6.1 0.08 0.21 0.21 87 1010.2
20260505015343 50 255 2.6 7.8 0.08 0.21 0.21 88 1010.2
20260505014842 50 262 3.5 9.6 0.09 0.21 0.21 87 1010.2
20260505014342 50 225 3.5 9.6 0.09 0.21 0.21 87 1010.2
20260505013843 50 233 2.6 8.7 0.09 0.21 0.21 87 1010.0
20260505013343 50 220 1.7 8.7 0.14 0.21 0.21 86 1010.0
20260505012843 50 190 1.7 7.0 0.19 0.21 0.21 85 1010.3
20260505012343 50 151 1.7 7.0 0.19 0.20 0.20 84 1010.8
20260505011842 51 151 1.7 7.0 0.19 0.19 0.19 83 1011.0
20260505011341 51 147 0.9 6.1 0.17 0.17 0.17 83 1011.5
20260505010841 51 147 1.7 5.2 0.15 0.15 0.16 83 1011.5
20260505010558 51 147 1.7 6.1 0.14 0.14 0.14 82 1011.1
20260505005841 52 158 0.9 6.1 0.13 0.13 0.13 82 1010.6
20260505005600 52 171 0.9 5.2 0.13 0.13 0.13 82 1010.3
20260505005103 52 163 1.7 10.4 0.12 0.12 0.13 80 1010.3